Time,TemperatureF,DewpointF,PressureIn,WindDirection,WindDirectionDegrees,WindSpeedMPH,WindSpeedGustMPH,Humidity,HourlyPrecipIn,Conditions,Clouds,dailyrainin,SoftwareType,DateUTC
2013-04-01 00:03:00,38.1,29.2,30.01,ENE,74,0.0,0.0,70,0.00,,,0.00,VWS V14.01,2013-04-01 06:03:00,
2013-04-01 00:08:00,37.9,29.0,30.01,ENE,74,0.0,0.0,70,0.00,,,0.00,VWS V14.01,2013-04-01 06:08:00,
2013-04-01 00:13:00,37.9,29.0,30.01,ENE,74,0.0,0.0,70,0.00,,,0.00,VWS V14.01,2013-04-01 06:13:00,
2013-04-01 00:18:00,38.0,29.1,30.01,ENE,74,0.0,0.0,70,0.00,,,0.00,VWS V14.01,2013-04-01 06:18:00,
2013-04-01 00:23:00,38.2,29.3,30.01,ENE,74,0.0,2.0,70,0.00,,,0.00,VWS V14.01,2013-04-01 06:23:00,
2013-04-01 00:28:00,38.4,29.1,30.01,ENE,74,0.0,2.0,69,0.00,,,0.00,VWS V14.01,2013-04-01 06:28:00,
2013-04-01 00:33:00,38.2,28.9,30.01,ENE,74,0.0,0.0,69,0.00,,,0.00,VWS V14.01,2013-04-01 06:33:00,
2013-04-01 00:38:00,37.3,29.1,30.01,ENE,74,0.0,2.0,72,0.00,,,0.00,VWS V14.01,2013-04-01 06:38:00,
2013-04-01 00:43:00,36.5,28.4,30.02,ENE,74,0.0,2.0,72,0.00,,,0.00,VWS V14.01,2013-04-01 06:43:00,
2013-04-01 00:48:00,36.3,28.5,30.01,ENE,74,0.0,2.0,73,0.00,,,0.00,VWS V14.01,2013-04-01 06:48:00,
2013-04-01 00:53:00,36.2,28.4,30.02,ENE,74,0.0,2.0,73,0.00,,,0.00,VWS V14.01,2013-04-01 06:53:00,
2013-04-01 00:58:00,36.1,28.6,30.02,ENE,74,0.0,2.0,74,0.00,,,0.00,VWS V14.01,2013-04-01 06:58:00,
2013-04-01 01:03:00,36.1,28.6,30.02,ENE,74,0.0,0.0,74,0.00,,,0.00,VWS V14.01,2013-04-01 07:03:00,
2013-04-01 01:08:00,36.3,28.8,30.02,ENE,74,0.0,0.0,74,0.00,,,0.00,VWS V14.01,2013-04-01 07:08:00,
2013-04-01 01:13:00,36.2,28.7,30.02,ENE,74,0.0,0.0,74,0.00,,,0.00,VWS V14.01,2013-04-01 07:13:00,
2013-04-01 01:18:00,36.3,28.5,30.02,ENE,74,0.0,0.0,73,0.00,,,0.00,VWS V14.01,2013-04-01 07:18:00,
2013-04-01 01:23:00,36.2,28.4,30.02,ENE,74,0.0,0.0,73,0.00,,,0.00,VWS V14.01,2013-04-01 07:23:00,
2013-04-01 01:28:00,36.0,28.5,30.02,ENE,74,0.0,0.0,74,0.00,,,0.00,VWS V14.01,2013-04-01 07:28:00,
2013-04-01 01:33:00,35.9,28.4,30.02,ENE,74,0.0,0.0,74,0.00,,,0.00,VWS V14.01,2013-04-01 07:33:00,
2013-04-01 01:38:00,35.6,28.5,30.02,ENE,74,0.0,0.0,75,0.00,,,0.00,VWS V14.01,2013-04-01 07:38:00,
2013-04-01 01:43:00,35.6,28.5,30.03,ENE,74,0.0,1.0,75,0.00,,,0.00,VWS V14.01,2013-04-01 07:43:00,
2013-04-01 01:48:00,35.4,28.3,30.03,ENE,74,0.0,1.0,75,0.00,,,0.00,VWS V14.01,2013-04-01 07:48:00,
2013-04-01 01:53:00,35.1,28.0,30.03,ENE,74,0.0,1.0,75,0.00,,,0.00,VWS V14.01,2013-04-01 07:53:00,
2013-04-01 01:58:00,34.8,28.0,30.03,ENE,74,0.0,1.0,76,0.00,,,0.00,VWS V14.01,2013-04-01 07:58:00,
2013-04-01 02:03:00,34.4,28.0,30.03,ENE,74,0.0,2.0,77,0.00,,,0.00,VWS V14.01,2013-04-01 08:03:00,
2013-04-01 02:08:00,34.2,27.8,30.03,ENE,74,0.0,2.0,77,0.00,,,0.00,VWS V14.01,2013-04-01 08:08:00,
2013-04-01 02:13:00,33.9,27.5,30.03,ENE,74,0.0,3.0,77,0.00,,,0.00,VWS V14.01,2013-04-01 08:13:00,
2013-04-01 02:18:00,33.8,27.7,30.03,ENE,74,0.0,3.0,78,0.00,,,0.00,VWS V14.01,2013-04-01 08:18:00,
2013-04-01 02:23:00,33.7,27.9,30.03,ENE,74,0.0,3.0,79,0.00,,,0.00,VWS V14.01,2013-04-01 08:23:00,
2013-04-01 02:28:00,34.1,28.0,30.03,ENE,74,0.0,3.0,78,0.00,,,0.00,VWS V14.01,2013-04-01 08:28:00,
2013-04-01 02:33:00,34.4,28.3,30.03,ENE,74,0.0,0.0,78,0.00,,,0.00,VWS V14.01,2013-04-01 08:33:00,
2013-04-01 02:38:00,34.3,28.2,30.03,ENE,74,0.0,0.0,78,0.00,,,0.00,VWS V14.01,2013-04-01 08:38:00,
2013-04-01 02:43:00,34.0,27.9,30.03,ENE,74,0.0,0.0,78,0.00,,,0.00,VWS V14.01,2013-04-01 08:43:00,
2013-04-01 02:48:00,33.4,27.6,30.03,ENE,74,0.0,0.0,79,0.00,,,0.00,VWS V14.01,2013-04-01 08:48:00,
2013-04-01 02:53:00,33.2,27.4,30.03,ENE,74,0.0,0.0,79,0.00,,,0.00,VWS V14.01,2013-04-01 08:53:00,
2013-04-01 02:58:00,32.8,27.3,30.04,ENE,74,0.0,0.0,80,0.00,,,0.00,VWS V14.01,2013-04-01 08:58:00,
2013-04-01 03:03:00,32.8,27.3,30.04,ENE,74,0.0,0.0,80,0.00,,,0.00,VWS V14.01,2013-04-01 09:03:00,
2013-04-01 03:08:00,32.8,27.3,30.04,ENE,74,0.0,0.0,80,0.00,,,0.00,VWS V14.01,2013-04-01 09:08:00,
2013-04-01 03:13:00,32.6,27.4,30.04,ENE,74,0.0,1.0,81,0.00,,,0.00,VWS V14.01,2013-04-01 09:13:00,
2013-04-01 03:19:00,32.7,27.5,30.04,ENE,74,0.0,1.0,81,0.00,,,0.00,VWS V14.01,2013-04-01 09:19:00,
2013-04-01 03:24:00,32.8,27.6,30.04,ENE,74,0.0,1.0,81,0.00,,,0.00,VWS V14.01,2013-04-01 09:24:00,
2013-04-01 03:29:00,32.8,27.6,30.04,ENE,74,0.0,1.0,81,0.00,,,0.00,VWS V14.01,2013-04-01 09:29:00,
2013-04-01 03:34:00,32.8,27.6,30.04,ENE,74,0.0,0.0,81,0.00,,,0.00,VWS V14.01,2013-04-01 09:34:00,
2013-04-01 03:39:00,32.8,27.6,30.04,ENE,74,0.0,2.0,81,0.00,,,0.00,VWS V14.01,2013-04-01 09:39:00,
2013-04-01 03:44:00,32.7,27.5,30.05,ENE,74,0.0,2.0,81,0.00,,,0.00,VWS V14.01,2013-04-01 09:44:00,
2013-04-01 03:49:00,32.6,27.4,30.05,ENE,74,0.0,2.0,81,0.00,,,0.00,VWS V14.01,2013-04-01 09:49:00,
2013-04-01 03:54:00,32.8,27.6,30.05,ENE,74,0.0,2.0,81,0.00,,,0.00,VWS V14.01,2013-04-01 09:54:00,
2013-04-01 03:59:00,33.0,27.5,30.05,ENE,76,0.0,3.0,80,0.00,,,0.00,VWS V14.01,2013-04-01 09:59:00,
2013-04-01 04:04:00,32.8,27.3,30.05,ENE,76,0.0,0.0,80,0.00,,,0.00,VWS V14.01,2013-04-01 10:04:00,
2013-04-01 04:09:00,32.4,26.9,30.05,ENE,76,0.0,0.0,80,0.00,,,0.00,VWS V14.01,2013-04-01 10:09:00,
2013-04-01 04:14:00,32.0,26.8,30.05,ENE,76,0.0,0.0,81,0.00,,,0.00,VWS V14.01,2013-04-01 10:14:00,
2013-04-01 04:19:00,31.5,26.6,30.05,ENE,76,0.0,0.0,82,0.00,,,0.00,VWS V14.01,2013-04-01 10:19:00,
2013-04-01 04:24:00,31.2,26.4,30.05,ENE,76,0.0,1.0,82,0.00,,,0.00,VWS V14.01,2013-04-01 10:24:00,
2013-04-01 04:29:00,31.1,26.5,30.05,ENE,76,2.0,2.0,83,0.00,,,0.00,VWS V14.01,2013-04-01 10:29:00,
2013-04-01 04:34:00,31.0,26.7,30.05,ENE,76,0.0,0.0,84,0.00,,,0.00,VWS V14.01,2013-04-01 10:34:00,
2013-04-01 04:39:00,31.1,26.8,30.05,ENE,76,0.0,0.0,84,0.00,,,0.00,VWS V14.01,2013-04-01 10:39:00,
2013-04-01 04:44:00,30.9,26.6,30.05,ENE,76,0.0,0.0,84,0.00,,,0.00,VWS V14.01,2013-04-01 10:44:00,
2013-04-01 04:49:00,30.8,26.5,30.05,ENE,76,0.0,0.0,84,0.00,,,0.00,VWS V14.01,2013-04-01 10:49:00,
2013-04-01 04:54:00,30.7,26.5,30.05,ENE,76,0.0,0.0,84,0.00,,,0.00,VWS V14.01,2013-04-01 10:54:00,
2013-04-01 04:59:00,30.8,26.8,30.06,ENE,76,1.0,1.0,85,0.00,,,0.00,VWS V14.01,2013-04-01 10:59:00,
2013-04-01 05:04:00,30.9,26.9,30.06,ENE,76,0.0,0.0,85,0.00,,,0.00,VWS V14.01,2013-04-01 11:04:00,
2013-04-01 05:09:00,30.9,26.9,30.06,ENE,76,0.0,0.0,85,0.00,,,0.00,VWS V14.01,2013-04-01 11:09:00,
2013-04-01 05:14:00,30.9,26.6,30.06,ENE,76,0.0,0.0,84,0.00,,,0.00,VWS V14.01,2013-04-01 11:14:00,
2013-04-01 05:19:00,30.5,26.0,30.06,ENE,76,0.0,0.0,83,0.00,,,0.00,VWS V14.01,2013-04-01 11:19:00,
2013-04-01 05:24:00,30.0,25.8,30.06,ENE,76,0.0,1.0,84,0.00,,,0.00,VWS V14.01,2013-04-01 11:24:00,
2013-04-01 05:29:00,30.5,26.8,30.06,ENE,76,2.0,3.0,86,0.00,,,0.00,VWS V14.01,2013-04-01 11:29:00,
2013-04-01 05:34:00,30.4,26.4,30.06,ENE,76,0.0,2.0,85,0.00,,,0.00,VWS V14.01,2013-04-01 11:34:00,
2013-04-01 05:39:00,30.0,26.0,30.06,ENE,76,0.0,2.0,85,0.00,,,0.00,VWS V14.01,2013-04-01 11:39:00,
2013-04-01 05:44:00,29.7,25.8,30.06,ENE,76,0.0,2.0,85,0.00,,,0.00,VWS V14.01,2013-04-01 11:44:00,
2013-04-01 05:49:00,29.6,25.9,30.06,ENE,76,0.0,2.0,86,0.00,,,0.00,VWS V14.01,2013-04-01 11:49:00,
2013-04-01 05:54:00,29.7,26.3,30.06,ENE,76,2.0,2.0,87,0.00,,,0.00,VWS V14.01,2013-04-01 11:54:00,
2013-04-01 05:59:00,30.6,27.2,30.06,SSW,200,0.0,4.0,87,0.00,,,0.00,VWS V14.01,2013-04-01 11:59:00,
2013-04-01 06:04:00,30.3,26.3,30.06,SSW,200,0.0,0.0,85,0.00,,,0.00,VWS V14.01,2013-04-01 12:04:00,
2013-04-01 06:09:00,30.5,26.8,30.06,SSW,200,0.0,3.0,86,0.00,,,0.00,VWS V14.01,2013-04-01 12:09:00,
2013-04-01 06:14:00,31.4,27.7,30.06,SSW,200,0.0,3.0,86,0.00,,,0.00,VWS V14.01,2013-04-01 12:14:00,
2013-04-01 06:19:00,31.7,27.4,30.06,SSW,200,0.0,3.0,84,0.00,,,0.00,VWS V14.01,2013-04-01 12:19:00,
2013-04-01 06:24:00,30.9,26.1,30.06,SSW,200,2.0,3.0,82,0.00,,,0.00,VWS V14.01,2013-04-01 12:24:00,
2013-04-01 06:29:00,29.2,25.0,30.07,SSW,197,3.0,3.0,84,0.00,,,0.00,VWS V14.01,2013-04-01 12:29:00,
2013-04-01 06:34:00,28.5,24.9,30.07,SSW,196,0.0,2.0,86,0.00,,,0.00,VWS V14.01,2013-04-01 12:34:00,
2013-04-01 06:39:00,28.7,25.3,30.06,SSW,196,0.0,2.0,87,0.00,,,0.00,VWS V14.01,2013-04-01 12:39:00,
2013-04-01 06:44:00,29.3,26.2,30.07,SSW,196,0.0,2.0,88,0.00,,,0.00,VWS V14.01,2013-04-01 12:44:00,
2013-04-01 06:49:00,29.4,26.3,30.07,SSW,196,0.0,2.0,88,0.00,,,0.00,VWS V14.01,2013-04-01 12:49:00,
2013-04-01 06:54:00,29.5,26.1,30.07,SSW,196,2.0,2.0,87,0.00,,,0.00,VWS V14.01,2013-04-01 12:54:00,
2013-04-01 06:59:00,30.1,27.0,30.07,SSW,196,0.0,2.0,88,0.00,,,0.00,VWS V14.01,2013-04-01 12:59:00,
2013-04-01 07:04:00,30.3,26.9,30.07,SSW,196,0.0,1.0,87,0.00,,,0.00,VPLive 1.2.5.27,2013-04-01 13:04:00,
2013-04-01 07:09:00,30.3,26.6,30.07,SSW,196,0.0,2.0,86,0.00,,,0.00,VWS V14.01,2013-04-01 13:09:00,
2013-04-01 07:14:00,29.7,25.8,30.07,SSW,196,0.0,3.0,85,0.00,,,0.00,VWS V14.01,2013-04-01 13:14:00,
2013-04-01 07:20:00,29.5,25.8,30.07,SSW,196,0.0,0.0,86,0.00,,,0.00,VPLive 1.2.5.27,2013-04-01 13:20:00,
2013-04-01 07:25:00,29.8,26.4,30.07,SSW,196,0.0,3.0,87,0.00,,,0.00,VWS V14.01,2013-04-01 13:25:00,
2013-04-01 07:30:00,29.7,26.0,30.07,SSW,196,0.0,0.0,86,0.00,,,0.00,VPLive 1.2.5.27,2013-04-01 13:30:00,
2013-04-01 07:35:00,29.4,25.7,30.07,SSW,196,0.0,0.0,86,0.00,,,0.00,VWS V14.01,2013-04-01 13:35:00,
2013-04-01 07:40:00,29.2,25.8,30.07,SSW,196,0.0,0.0,87,0.00,,,0.00,VWS V14.01,2013-04-01 13:40:00,
2013-04-01 07:45:00,29.2,25.8,30.07,SSW,192,0.0,0.0,87,0.00,,,0.00,VWS V14.01,2013-04-01 13:45:00,
2013-04-01 07:50:00,29.3,25.9,30.07,SSW,192,0.0,1.0,87,0.00,,,0.00,VWS V14.01,2013-04-01 13:50:00,
2013-04-01 07:55:00,29.4,26.0,30.07,SSW,192,0.0,1.0,87,0.00,,,0.00,VWS V14.01,2013-04-01 13:55:00,
2013-04-01 08:00:00,29.7,26.6,30.07,SSW,192,0.0,1.0,88,0.00,,,0.00,VWS V14.01,2013-04-01 14:00:00,
2013-04-01 08:05:00,29.7,26.3,30.07,SSW,192,0.0,0.0,87,0.00,,,0.00,VPLive 1.2.5.27,2013-04-01 14:05:00,
2013-04-01 08:12:00,29.8,26.4,30.07,SSW,192,0.0,0.0,87,0.00,,,0.00,VWS V14.01,2013-04-01 14:12:00,
2013-04-01 08:17:00,29.9,26.5,30.07,SSW,192,0.0,0.0,87,0.00,,,0.00,VWS V14.01,2013-04-01 14:17:00,
2013-04-01 08:22:00,29.8,26.1,30.07,SSW,192,0.0,0.0,86,0.00,,,0.00,VWS V14.01,2013-04-01 14:22:00,
2013-04-01 08:27:00,29.7,26.3,30.07,SSW,192,0.0,0.0,87,0.00,,,0.00,VWS V14.01,2013-04-01 14:27:00,
2013-04-01 08:32:00,29.6,26.2,30.07,SSW,192,0.0,2.0,87,0.00,,,0.00,VPLive 1.2.5.27,2013-04-01 14:32:00,
2013-04-01 08:37:00,29.4,26.0,30.07,SSW,192,3.0,3.0,87,0.00,,,0.00,VWS V14.01,2013-04-01 14:37:00,
2013-04-01 08:42:00,29.3,25.9,30.08,SSW,192,0.0,3.0,87,0.00,,,0.00,VWS V14.01,2013-04-01 14:42:00,
2013-04-01 08:47:00,29.3,25.9,30.08,SSW,192,0.0,3.0,87,0.00,,,0.00,VWS V14.01,2013-04-01 14:47:00,
2013-04-01 08:52:00,29.8,26.7,30.08,SSW,192,0.0,3.0,88,0.00,,,0.00,VWS V14.01,2013-04-01 14:52:00,
2013-04-01 08:57:00,31.0,28.1,30.08,SSW,192,3.0,3.0,89,0.00,,,0.00,VWS V14.01,2013-04-01 14:57:00,
2013-04-01 09:02:00,33.0,30.1,30.07,SSW,192,2.0,3.0,89,0.00,,,0.00,VWS V14.01,2013-04-01 15:02:00,
2013-04-01 09:07:00,34.2,30.5,30.08,SSW,192,0.0,3.0,86,0.00,,,0.00,VWS V14.01,2013-04-01 15:07:00,
2013-04-01 09:12:00,34.4,29.8,30.08,SSW,192,0.0,3.0,83,0.00,,,0.00,VWS V14.01,2013-04-01 15:12:00,
2013-04-01 09:17:00,34.4,29.8,30.08,SSW,192,0.0,3.0,83,0.00,,,0.00,VWS V14.01,2013-04-01 15:17:00,
2013-04-01 09:22:00,34.4,29.8,30.07,SSW,192,0.0,3.0,83,0.00,,,0.00,VWS V14.01,2013-04-01 15:22:00,
2013-04-01 09:27:00,34.4,29.8,30.07,SSW,192,1.0,3.0,83,0.00,,,0.00,VWS V14.01,2013-04-01 15:27:00,
2013-04-01 09:32:00,34.8,29.6,30.07,SSW,192,1.0,1.0,81,0.00,,,0.00,VWS V14.01,2013-04-01 15:32:00,
2013-04-01 09:37:00,35.4,30.2,30.07,SSW,192,0.0,3.0,81,0.00,,,0.00,VWS V14.01,2013-04-01 15:37:00,
2013-04-01 09:43:00,36.1,30.5,30.07,SSW,209,0.0,4.0,80,0.00,,,0.00,VWS V14.01,2013-04-01 15:43:00,
2013-04-01 09:48:00,37.0,31.1,30.07,SSW,209,0.0,3.0,79,0.00,,,0.00,VPLive 1.2.5.27,2013-04-01 15:48:00,
2013-04-01 09:53:00,37.6,31.1,30.07,SSW,209,0.0,4.0,77,0.00,,,0.00,VWS V14.01,2013-04-01 15:53:00,
2013-04-01 09:58:00,38.2,31.3,30.07,SSW,209,0.0,4.0,76,0.00,,,0.00,VWS V14.01,2013-04-01 15:58:00,
2013-04-01 10:03:00,39.1,32.2,30.07,SSW,209,0.0,2.0,76,0.00,,,0.00,VWS V14.01,2013-04-01 16:03:00,
2013-04-01 10:08:00,39.8,32.5,30.07,SSW,209,0.0,2.0,75,0.00,,,0.00,VWS V14.01,2013-04-01 16:08:00,
2013-04-01 10:13:00,40.6,33.3,30.07,SSW,209,0.0,2.0,75,0.00,,,0.00,VWS V14.01,2013-04-01 16:13:00,
2013-04-01 10:18:00,41.4,33.1,30.07,SSW,209,2.0,2.0,72,0.00,,,0.00,VWS V14.01,2013-04-01 16:18:00,
2013-04-01 10:23:00,42.4,32.6,30.06,East,82,1.0,6.0,68,0.00,,,0.00,VWS V14.01,2013-04-01 16:23:00,
2013-04-01 10:28:00,43.4,32.8,30.06,ENE,71,6.0,6.0,66,0.00,,,0.00,VWS V14.01,2013-04-01 16:28:00,
2013-04-01 10:33:00,44.2,32.0,30.06,East,92,2.0,4.0,62,0.00,,,0.00,VWS V14.01,2013-04-01 16:33:00,
2013-04-01 10:38:00,44.9,31.9,30.06,East,88,3.0,6.0,60,0.00,,,0.00,VWS V14.01,2013-04-01 16:38:00,
2013-04-01 10:43:00,45.0,31.5,30.06,ENE,67,5.0,7.0,59,0.00,,,0.00,VWS V14.01,2013-04-01 16:43:00,
2013-04-01 10:48:00,45.5,31.6,30.06,East,95,7.0,8.0,58,0.00,,,0.00,VWS V14.01,2013-04-01 16:48:00,
2013-04-01 10:53:00,46.2,31.4,30.06,East,88,3.0,9.0,56,0.00,,,0.00,VWS V14.01,2013-04-01 16:53:00,
2013-04-01 10:58:00,46.9,31.6,30.06,East,96,6.0,9.0,55,0.00,,,0.00,VWS V14.01,2013-04-01 16:58:00,
2013-04-01 11:03:00,47.6,32.2,30.06,East,81,5.0,6.0,55,0.00,,,0.00,VWS V14.01,2013-04-01 17:03:00,
2013-04-01 11:08:00,47.7,31.4,30.06,ESE,111,4.0,7.0,53,0.00,,,0.00,VWS V14.01,2013-04-01 17:08:00,
2013-04-01 11:13:00,48.2,31.9,30.06,East,99,1.0,6.0,53,0.00,,,0.00,VPLive 1.2.5.27,2013-04-01 17:13:00,
2013-04-01 11:18:00,48.4,31.6,30.06,ENE,61,5.0,7.0,52,0.00,,,0.00,VWS V14.01,2013-04-01 17:18:00,
2013-04-01 11:23:00,48.8,32.0,30.06,NE,46,4.0,7.0,52,0.00,,,0.00,VWS V14.01,2013-04-01 17:23:00,
2013-04-01 11:28:00,49.2,31.9,30.06,NNE,28,5.0,10.0,51,0.00,,,0.00,VWS V14.01,2013-04-01 17:28:00,
2013-04-01 11:33:00,49.2,31.9,30.06,ENE,59,5.0,7.0,51,0.00,,,0.00,VWS V14.01,2013-04-01 17:33:00,
2013-04-01 11:38:00,49.1,32.2,30.06,NE,53,6.0,10.0,52,0.00,,,0.00,VWS V14.01,2013-04-01 17:38:00,
2013-04-01 11:43:00,49.0,32.2,30.05,NE,40,6.0,10.0,52,0.00,,,0.00,VWS V14.01,2013-04-01 17:43:00,
2013-04-01 11:48:00,49.1,32.2,30.05,NE,42,8.0,10.0,52,0.00,,,0.00,VWS V14.01,2013-04-01 17:48:00,
2013-04-01 11:53:00,49.3,32.0,30.06,ENE,63,4.0,10.0,51,0.00,,,0.00,VWS V14.01,2013-04-01 17:53:00,
2013-04-01 11:58:00,49.5,31.6,30.05,ENE,69,7.0,10.0,50,0.00,,,0.00,VWS V14.01,2013-04-01 17:58:00,
2013-04-01 12:03:00,49.7,31.8,30.05,ENE,77,6.0,6.0,50,0.00,,,0.00,VWS V14.01,2013-04-01 18:03:00,
2013-04-01 12:08:00,50.4,33.0,30.05,East,82,3.0,7.0,51,0.00,,,0.00,VWS V14.01,2013-04-01 18:08:00,
2013-04-01 12:13:00,50.9,31.9,30.05,NE,49,4.0,8.0,48,0.00,,,0.00,VWS V14.01,2013-04-01 18:13:00,
2013-04-01 12:18:00,51.2,32.7,30.05,ENE,73,4.0,10.0,49,0.00,,,0.00,VWS V14.01,2013-04-01 18:18:00,
2013-04-01 12:23:00,52.0,32.4,30.05,ENE,76,0.0,10.0,47,0.00,,,0.00,VWS V14.01,2013-04-01 18:23:00,
2013-04-01 12:28:00,52.8,32.6,30.05,ENE,59,3.0,10.0,46,0.00,,,0.00,VWS V14.01,2013-04-01 18:28:00,
2013-04-01 12:33:00,53.0,32.8,30.05,NE,41,4.0,6.0,46,0.00,,,0.00,VWS V14.01,2013-04-01 18:33:00,
2013-04-01 12:38:00,53.0,32.8,30.05,ENE,57,1.0,7.0,46,0.00,,,0.00,VWS V14.01,2013-04-01 18:38:00,
2013-04-01 12:43:00,53.9,33.0,30.05,NNE,31,5.0,8.0,45,0.00,,,0.00,VPLive 1.2.5.27,2013-04-01 18:43:00,
2013-04-01 12:48:00,54.1,32.7,30.05,North,5,7.0,11.0,44,0.00,,,0.00,VWS V14.01,2013-04-01 18:48:00,
2013-04-01 12:53:00,54.1,32.7,30.04,NE,55,5.0,11.0,44,0.00,,,0.00,VWS V14.01,2013-04-01 18:53:00,
2013-04-01 12:58:00,54.6,32.0,30.04,ENE,58,5.0,11.0,42,0.00,,,0.00,VWS V14.01,2013-04-01 18:58:00,
2013-04-01 13:03:00,55.3,33.2,30.04,NE,51,4.0,5.0,43,0.00,,,0.00,VWS V14.01,2013-04-01 19:03:00,
2013-04-01 13:08:00,55.5,32.8,30.04,NNE,27,5.0,7.0,42,0.00,,,0.00,VWS V14.01,2013-04-01 19:08:00,
2013-04-01 13:13:00,55.0,32.3,30.04,North,360,6.0,9.0,42,0.00,,,0.00,VWS V14.01,2013-04-01 19:13:00,
2013-04-01 13:18:00,55.2,32.5,30.03,ENE,59,2.0,9.0,42,0.00,,,0.00,VWS V14.01,2013-04-01 19:18:00,
2013-04-01 13:23:00,55.8,33.1,30.03,NE,42,7.0,10.0,42,0.00,,,0.00,VWS V14.01,2013-04-01 19:23:00,
2013-04-01 13:28:00,56.2,32.2,30.03,NNE,15,6.0,10.0,40,0.00,,,0.00,VWS V14.01,2013-04-01 19:28:00,
2013-04-01 13:33:00,56.7,33.9,30.03,NE,47,6.0,7.0,42,0.00,,,0.00,VWS V14.01,2013-04-01 19:33:00,
2013-04-01 13:38:00,57.0,32.3,30.03,NNE,13,3.0,9.0,39,0.00,,,0.00,VWS V14.01,2013-04-01 19:38:00,
2013-04-01 13:43:00,57.6,33.5,30.02,NE,42,6.0,11.0,40,0.00,,,0.00,VWS V14.01,2013-04-01 19:43:00,
2013-04-01 13:48:00,57.6,32.2,30.02,NNE,14,3.0,11.0,38,0.00,,,0.00,VWS V14.01,2013-04-01 19:48:00,
2013-04-01 13:53:00,57.5,32.1,30.02,NNE,14,6.0,11.0,38,0.00,,,0.00,VWS V14.01,2013-04-01 19:53:00,
2013-04-01 13:58:00,58.4,32.9,30.02,NNE,24,7.0,11.0,38,0.00,,,0.00,VWS V14.01,2013-04-01 19:58:00,
2013-04-01 14:03:00,58.6,33.1,30.02,NNE,19,7.0,9.0,38,0.00,,,0.00,VWS V14.01,2013-04-01 20:03:00,
2013-04-01 14:08:00,58.3,32.2,30.02,NE,46,5.0,9.0,37,0.00,,,0.00,VWS V14.01,2013-04-01 20:08:00,
2013-04-01 14:13:00,58.9,32.7,30.02,NE,34,3.0,9.0,37,0.00,,,0.00,VWS V14.01,2013-04-01 20:13:00,
2013-04-01 14:18:00,59.4,33.8,30.01,NE,35,6.0,9.0,38,0.00,,,0.00,VWS V14.01,2013-04-01 20:18:00,
2013-04-01 14:24:00,59.3,32.4,30.01,NE,40,9.0,9.0,36,0.00,,,0.00,VWS V14.01,2013-04-01 20:24:00,
2013-04-01 14:29:00,59.0,32.8,30.01,NNE,19,7.0,9.0,37,0.00,,,0.00,VWS V14.01,2013-04-01 20:29:00,
2013-04-01 14:34:00,59.6,32.6,30.00,North,9,5.0,7.0,36,0.00,,,0.00,VWS V14.01,2013-04-01 20:34:00,
2013-04-01 14:39:00,59.1,32.2,30.00,North,351,4.0,8.0,36,0.00,,,0.00,VWS V14.01,2013-04-01 20:39:00,
2013-04-01 14:44:00,59.7,33.4,30.00,NNE,26,3.0,11.0,37,0.00,,,0.00,VWS V14.01,2013-04-01 20:44:00,
2013-04-01 14:49:00,60.1,34.4,30.00,NE,53,6.0,11.0,38,0.00,,,0.00,VWS V14.01,2013-04-01 20:49:00,
2013-04-01 14:54:00,60.8,33.0,30.00,North,355,7.0,11.0,35,0.00,,,0.00,VWS V14.01,2013-04-01 20:54:00,
2013-04-01 14:59:00,61.0,33.9,30.00,ENE,62,1.0,11.0,36,0.00,,,0.00,VWS V14.01,2013-04-01 20:59:00,
2013-04-01 15:04:00,61.7,33.1,30.00,NE,44,7.0,11.0,34,0.00,,,0.00,VWS V14.01,2013-04-01 21:04:00,
2013-04-01 15:09:00,62.1,34.8,30.00,NE,52,4.0,11.0,36,0.00,,,0.00,VWS V14.01,2013-04-01 21:09:00,
2013-04-01 15:14:00,61.6,33.0,30.00,NNE,25,9.0,11.0,34,0.00,,,0.00,VWS V14.01,2013-04-01 21:14:00,
2013-04-01 15:19:00,61.3,33.4,29.99,NNE,17,7.0,11.0,35,0.00,,,0.00,VWS V14.01,2013-04-01 21:19:00,
2013-04-01 15:24:00,61.6,33.0,29.99,NNE,28,4.0,11.0,34,0.00,,,0.00,VWS V14.01,2013-04-01 21:24:00,
2013-04-01 15:29:00,62.4,33.7,29.99,NNE,23,5.0,11.0,34,0.00,,,0.00,VWS V14.01,2013-04-01 21:29:00,
2013-04-01 15:34:00,62.2,32.8,29.99,NE,54,3.0,6.0,33,0.00,,,0.00,VWS V14.01,2013-04-01 21:34:00,
2013-04-01 15:39:00,62.5,32.3,29.99,NE,54,0.0,6.0,32,0.00,,,0.00,VWS V14.01,2013-04-01 21:39:00,
2013-04-01 15:44:00,63.4,34.6,29.98,NE,48,6.0,6.0,34,0.00,,,0.00,VWS V14.01,2013-04-01 21:44:00,
2013-04-01 15:49:00,63.3,33.0,29.98,NNE,15,5.0,12.0,32,0.00,,,0.00,VWS V14.01,2013-04-01 21:49:00,
2013-04-01 15:54:00,62.4,32.2,29.98,North,5,7.0,12.0,32,0.00,,,0.00,VWS V14.01,2013-04-01 21:54:00,
2013-04-01 15:59:00,62.7,34.0,29.98,ENE,57,3.0,12.0,34,0.00,,,0.00,VWS V14.01,2013-04-01 21:59:00,
2013-04-01 16:04:00,63.0,32.7,29.98,ENE,65,6.0,10.0,32,0.00,,,0.00,VWS V14.01,2013-04-01 22:04:00,
2013-04-01 16:09:00,62.7,32.4,29.98,NE,45,3.0,10.0,32,0.00,,,0.00,VWS V14.01,2013-04-01 22:09:00,
2013-04-01 16:14:00,62.7,32.4,29.98,North,11,5.0,10.0,32,0.00,,,0.00,VWS V14.01,2013-04-01 22:14:00,
2013-04-01 16:19:00,63.3,32.1,29.98,NNW,346,4.0,8.0,31,0.00,,,0.00,VPLive 1.2.5.27,2013-04-01 22:19:00,
2013-04-01 16:24:00,63.1,31.9,29.97,NNE,22,2.0,6.0,31,0.00,,,0.00,VPLive 1.2.5.27,2013-04-01 22:24:00,
2013-04-01 16:29:00,63.7,33.3,29.97,ENE,78,5.0,8.0,32,0.00,,,0.00,VPLive 1.2.5.27,2013-04-01 22:29:00,
2013-04-01 16:34:00,64.3,33.0,29.97,ENE,62,6.0,7.0,31,0.00,,,0.00,VWS V14.01,2013-04-01 22:34:00,
2013-04-01 16:39:00,64.4,32.3,29.97,ENE,68,0.0,10.0,30,0.00,,,0.00,VWS V14.01,2013-04-01 22:39:00,
2013-04-01 16:44:00,64.3,33.0,29.97,ENE,67,0.0,10.0,31,0.00,,,0.00,VWS V14.01,2013-04-01 22:44:00,
2013-04-01 16:49:00,65.1,32.9,29.97,ESE,105,4.0,10.0,30,0.00,,,0.00,VWS V14.01,2013-04-01 22:49:00,
2013-04-01 16:54:00,65.0,33.7,29.97,ESE,121,0.0,10.0,31,0.00,,,0.00,VWS V14.01,2013-04-01 22:54:00,
2013-04-01 16:59:00,64.8,33.5,29.96,NNE,24,8.0,12.0,31,0.00,,,0.00,VWS V14.01,2013-04-01 22:59:00,
2013-04-01 17:04:00,64.5,33.2,29.96,ENE,67,8.0,10.0,31,0.00,,,0.00,VWS V14.01,2013-04-01 23:04:00,
2013-04-01 17:09:00,64.1,33.7,29.96,NE,51,11.0,12.0,32,0.00,,,0.00,VWS V14.01,2013-04-01 23:09:00,
2013-04-01 17:15:00,64.4,33.9,29.96,NE,49,2.0,12.0,32,0.00,,,0.00,VWS V14.01,2013-04-01 23:15:00,
2013-04-01 17:20:00,65.1,33.7,29.96,East,84,3.0,7.0,31,0.00,,,0.00,VPLive 1.2.5.27,2013-04-01 23:20:00,
2013-04-01 17:25:00,65.2,33.8,29.96,East,85,1.0,12.0,31,0.00,,,0.00,VWS V14.01,2013-04-01 23:25:00,
2013-04-01 17:30:00,65.2,33.0,29.96,ENE,59,3.0,12.0,30,0.00,,,0.00,VWS V14.01,2013-04-01 23:30:00,
2013-04-01 17:35:00,64.9,32.8,29.96,ENE,61,3.0,10.0,30,0.00,,,0.00,VWS V14.01,2013-04-01 23:35:00,
2013-04-01 17:40:00,64.9,31.9,29.96,ENE,78,2.0,12.0,29,0.00,,,0.00,VWS V14.01,2013-04-01 23:40:00,
2013-04-01 17:45:00,64.9,31.9,29.96,ESE,122,9.0,12.0,29,0.00,,,0.00,VWS V14.01,2013-04-01 23:45:00,
2013-04-01 17:50:00,64.5,32.4,29.96,ENE,78,5.0,12.0,30,0.00,,,0.00,VWS V14.01,2013-04-01 23:50:00,
2013-04-01 17:55:00,64.3,31.4,29.96,East,98,5.0,12.0,29,0.00,,,0.00,VWS V14.01,2013-04-01 23:55:00,
2013-04-01 18:00:00,64.4,31.5,29.95,ENE,65,5.0,12.0,29,0.00,,,0.00,VWS V14.01,2013-04-02 00:00:00,
2013-04-01 18:05:00,64.2,31.3,29.96,East,98,2.0,11.0,29,0.00,,,0.00,VWS V14.01,2013-04-02 00:05:00,
2013-04-01 18:10:00,63.9,31.0,29.96,East,98,4.0,11.0,29,0.00,,,0.00,VWS V14.01,2013-04-02 00:10:00,
2013-04-01 18:15:00,63.9,31.0,29.95,NE,51,5.0,11.0,29,0.00,,,0.00,VWS V14.01,2013-04-02 00:15:00,
2013-04-01 18:21:00,63.8,31.0,29.95,ESE,108,11.0,11.0,29,0.00,,,0.00,VWS V14.01,2013-04-02 00:21:00,
2013-04-01 18:26:00,63.4,31.5,29.95,SE,126,8.0,11.0,30,0.00,,,0.00,VWS V14.01,2013-04-02 00:26:00,
2013-04-01 18:31:00,63.2,31.3,29.95,ESE,107,6.0,12.0,30,0.00,,,0.00,VWS V14.01,2013-04-02 00:31:00,
2013-04-01 18:36:00,63.2,31.2,29.95,ESE,115,2.0,13.0,30,0.00,,,0.00,VPLive 1.2.5.27,2013-04-02 00:36:00,
2013-04-01 18:41:00,63.2,31.2,29.95,ESE,106,8.0,12.0,30,0.00,,,0.00,VPLive 1.2.5.27,2013-04-02 00:41:00,
2013-04-01 18:47:00,62.8,30.9,29.95,ESE,109,6.0,12.0,30,0.00,,,0.00,VWS V14.01,2013-04-02 00:47:00,
2013-04-01 18:52:00,62.6,30.8,29.95,ESE,119,7.0,12.0,30,0.00,,,0.00,VWS V14.01,2013-04-02 00:52:00,
2013-04-01 18:57:00,62.5,31.5,29.95,SE,124,6.0,12.0,31,0.00,,,0.00,VWS V14.01,2013-04-02 00:57:00,
2013-04-01 19:02:00,62.5,31.5,29.95,ESE,123,8.0,8.0,31,0.00,,,0.00,VWS V14.01,2013-04-02 01:02:00,
2013-04-01 19:07:00,62.4,31.4,29.95,ESE,115,1.0,8.0,31,0.00,,,0.00,VWS V14.01,2013-04-02 01:07:00,
2013-04-01 19:13:00,62.5,30.7,29.95,ESE,112,4.0,8.0,30,0.00,,,0.00,VWS V14.01,2013-04-02 01:13:00,
2013-04-01 19:18:00,62.3,30.5,29.95,ESE,119,0.0,8.0,30,0.00,,,0.00,VWS V14.01,2013-04-02 01:18:00,
2013-04-01 19:22:00,62.2,31.2,29.95,ESE,121,1.0,8.0,31,0.00,,,0.00,VWS V14.01,2013-04-02 01:22:00,
2013-04-01 19:28:00,62.1,31.1,29.95,ESE,121,0.0,8.0,31,0.00,,,0.00,VWS V14.01,2013-04-02 01:28:00,
2013-04-01 19:33:00,62.2,31.2,29.95,ESE,121,0.0,0.0,31,0.00,,,0.00,VWS V14.01,2013-04-02 01:33:00,
2013-04-01 19:38:00,61.9,31.7,29.95,ESE,121,0.0,4.0,32,0.00,,,0.00,VWS V14.01,2013-04-02 01:38:00,
2013-04-01 19:43:00,61.5,33.6,29.95,ESE,121,0.0,4.0,35,0.00,,,0.00,VWS V14.01,2013-04-02 01:43:00,
2013-04-01 19:48:00,59.9,32.9,29.95,ESE,121,0.0,4.0,36,0.00,,,0.00,VWS V14.01,2013-04-02 01:48:00,
2013-04-01 19:53:00,58.6,32.4,29.95,ESE,121,0.0,4.0,37,0.00,,,0.00,VWS V14.01,2013-04-02 01:53:00,
2013-04-01 19:58:00,57.1,31.8,29.95,ESE,121,2.0,4.0,38,0.00,,,0.00,VWS V14.01,2013-04-02 01:58:00,
2013-04-01 20:03:00,55.9,31.3,29.95,NE,53,3.0,4.0,39,0.00,,,0.00,VPLive 1.2.5.27,2013-04-02 02:03:00,
2013-04-01 20:08:00,55.0,31.1,29.95,NE,53,0.0,3.0,40,0.00,,,0.00,VPLive 1.2.5.27,2013-04-02 02:08:00,
2013-04-01 20:17:00,54.0,30.9,29.96,NE,53,0.0,4.0,41,0.00,,,0.00,VWS V14.01,2013-04-02 02:17:00,
2013-04-01 20:29:00,53.2,30.7,29.96,NE,53,0.0,2.0,42,0.00,,,0.00,VPLive 1.2.5.27,2013-04-02 02:29:00,
2013-04-01 20:34:00,52.8,30.4,29.96,NE,53,0.0,3.0,42,0.00,,,0.00,VWS V14.01,2013-04-02 02:34:00,
2013-04-01 20:39:00,52.4,30.6,29.97,NE,53,0.0,4.0,43,0.00,,,0.00,VWS V14.01,2013-04-02 02:39:00,
2013-04-01 20:51:00,52.2,30.4,29.97,NE,53,0.0,4.0,43,0.00,,,0.00,VWS V14.01,2013-04-02 02:51:00,
2013-04-01 20:57:00,52.0,30.2,29.97,NE,53,0.0,4.0,43,0.00,,,0.00,VWS V14.01,2013-04-02 02:57:00,
2013-04-01 21:07:00,51.0,31.0,29.98,ENE,65,2.0,3.0,46,0.00,,,0.00,VWS V14.01,2013-04-02 03:07:00,
2013-04-01 21:12:00,50.9,30.9,29.98,ENE,65,0.0,3.0,46,0.00,,,0.00,VWS V14.01,2013-04-02 03:12:00,
2013-04-01 21:17:00,50.8,30.2,29.98,ENE,65,0.0,3.0,45,0.00,,,0.00,VWS V14.01,2013-04-02 03:17:00,
2013-04-01 21:23:00,50.7,30.7,29.98,ENE,65,0.0,3.0,46,0.00,,,0.00,VWS V14.01,2013-04-02 03:23:00,
2013-04-01 21:28:00,50.4,30.4,29.98,ENE,65,0.0,3.0,46,0.00,,,0.00,VWS V14.01,2013-04-02 03:28:00,
2013-04-01 21:33:00,50.1,30.7,29.98,ENE,65,0.0,0.0,47,0.00,,,0.00,VWS V14.01,2013-04-02 03:33:00,
2013-04-01 21:38:00,49.8,30.4,29.98,ENE,65,0.0,1.0,47,0.00,,,0.00,VWS V14.01,2013-04-02 03:38:00,
2013-04-01 21:43:00,49.4,30.5,29.98,ENE,65,0.0,3.0,48,0.00,,,0.00,VWS V14.01,2013-04-02 03:43:00,
2013-04-01 21:48:00,48.9,30.6,29.98,ENE,65,0.0,3.0,49,0.00,,,0.00,VWS V14.01,2013-04-02 03:48:00,
2013-04-01 21:53:00,47.9,30.2,29.99,ENE,65,0.0,3.0,50,0.00,,,0.00,VWS V14.01,2013-04-02 03:53:00,
2013-04-01 21:58:00,47.0,30.3,29.99,ENE,65,0.0,3.0,52,0.00,,,0.00,VWS V14.01,2013-04-02 03:58:00,
2013-04-01 22:00:00,46.7,30.0,29.99,ENE,65,0.0,3.0,52,0.00,,,0.00,VWS V14.01,2013-04-02 04:00:00,
2013-04-01 22:01:00,46.6,29.9,29.99,ENE,65,0.0,3.0,52,0.00,,,0.00,VWS V14.01,2013-04-02 04:01:00,
2013-04-01 22:06:00,46.7,30.5,29.99,ENE,65,0.0,3.0,53,0.00,,,0.00,VPLive 1.2.5.27,2013-04-02 04:06:00,
2013-04-01 22:11:00,46.4,30.2,29.99,ENE,65,0.0,1.0,53,0.00,,,0.00,VPLive 1.2.5.27,2013-04-02 04:11:00,
2013-04-01 22:16:00,46.1,30.4,29.99,ENE,65,0.0,3.0,54,0.00,,,0.00,VWS V14.01,2013-04-02 04:16:00,
2013-04-01 22:21:00,46.0,30.3,29.99,ENE,65,0.0,3.0,54,0.00,,,0.00,VWS V14.01,2013-04-02 04:21:00,
2013-04-01 22:26:00,46.1,30.4,29.99,ENE,65,0.0,3.0,54,0.00,,,0.00,VWS V14.01,2013-04-02 04:26:00,
2013-04-01 22:32:00,45.6,30.4,29.99,ENE,65,0.0,3.0,55,0.00,,,0.00,VWS V14.01,2013-04-02 04:32:00,
2013-04-01 22:37:00,44.9,30.1,29.99,ENE,65,0.0,2.0,56,0.00,,,0.00,VPLive 1.2.5.27,2013-04-02 04:37:00,
2013-04-01 22:43:00,44.5,30.2,29.99,ENE,65,0.0,2.0,57,0.00,,,0.00,VWS V14.01,2013-04-02 04:43:00,
2013-04-01 22:48:00,44.0,30.2,29.99,ENE,65,0.0,2.0,58,0.00,,,0.00,VWS V14.01,2013-04-02 04:48:00,
2013-04-01 22:53:00,43.6,29.8,29.99,ENE,65,0.0,2.0,58,0.00,,,0.00,VWS V14.01,2013-04-02 04:53:00,
2013-04-01 22:58:00,43.1,29.8,29.99,ENE,65,0.0,2.0,59,0.00,,,0.00,VWS V14.01,2013-04-02 04:58:00,
2013-04-01 23:03:00,42.7,29.8,29.99,ENE,65,0.0,0.0,60,0.00,,,0.00,VWS V14.01,2013-04-02 05:03:00,
2013-04-01 23:08:00,42.6,30.5,29.99,ENE,65,0.0,0.0,62,0.00,,,0.00,VWS V14.01,2013-04-02 05:08:00,
2013-04-01 23:13:00,42.4,29.9,29.99,ENE,65,0.0,0.0,61,0.00,,,0.00,VWS V14.01,2013-04-02 05:13:00,
2013-04-01 23:18:00,42.7,30.6,29.99,ENE,65,0.0,0.0,62,0.00,,,0.00,VWS V14.01,2013-04-02 05:18:00,
2013-04-01 23:23:00,42.8,30.3,29.99,ENE,65,0.0,0.0,61,0.00,,,0.00,VWS V14.01,2013-04-02 05:23:00,
2013-04-01 23:29:00,42.9,30.4,29.99,ENE,65,0.0,1.0,61,0.00,,,0.00,VWS V14.01,2013-04-02 05:29:00,
2013-04-01 23:34:00,42.9,30.4,29.99,ENE,65,0.0,1.0,61,0.00,,,0.00,VWS V14.01,2013-04-02 05:34:00,
2013-04-01 23:39:00,42.9,30.4,29.99,ENE,65,0.0,1.0,61,0.00,,,0.00,VWS V14.01,2013-04-02 05:39:00,
2013-04-01 23:44:00,42.9,30.4,29.99,ENE,65,0.0,1.0,61,0.00,,,0.00,VWS V14.01,2013-04-02 05:44:00,
2013-04-01 23:49:00,43.1,30.6,29.99,ENE,65,0.0,2.0,61,0.00,,,0.00,VWS V14.01,2013-04-02 05:49:00,
2013-04-01 23:54:00,43.0,30.5,29.99,ENE,65,0.0,2.0,61,0.00,,,0.00,VWS V14.01,2013-04-02 05:54:00,
2013-04-01 23:59:00,42.9,30.0,29.99,ENE,65,0.0,2.0,60,0.00,,,0.00,VWS V14.01,2013-04-02 05:59:00,